User: anonymous   Login
Location: Bandys
(35.4750°N, 81.0830°W)
Time: 17:41:40
(UTC-04:00)
Language:

DELTA 2 R/B (1) - Orbit

View from above orbital plane
View from above orbital plane
View from above satellite
View from above satellite

Ground track
Ground track

The orbit data is extracted from the following two-line orbital elements,

1 27665U 03005C   17232.87223965 +.00000020 +00000-0 +41681-4 0  9997
2 27665 039.5756 140.8993 0008812 321.0429 095.6912 14.28450041760090
Epoch (UTC): 20 August 2017 20:56:01
Eccentricity: 0.0008812
inclination: 39.5756°
perigee height: 790 km
apogee height: 803 km
right ascension of ascending node: 140.8993°
argument of perigee: 321.0429°
revolutions per day: 14.28450041
mean anomaly at epoch: 95.6912°
orbit number at epoch: 76009

The dashed part of the orbit path shows where the satellite is in the earth's shadow,  

DLR